Retour au catalogue

COSMOS 2251 DEB

ActifLEO
NORAD 40233·DEBRIS·🇷🇺 Russia

Lancé Jun 16, 1993 depuis Plesetsk Cosmodrome

Loading…

Prochains Passages (prochaines 24 heures)

TLE

VieillissantSource: Space-Track

Époque: Sep 12, 2026, 09:21 UTC

1 40233U 93036BVN 26255.38975154  .00002064  00000-0  42383-3 0  9990
2 40233  73.9379 298.0247 0047227 308.9767  50.7195 14.60651850631302

Suivez COSMOS 2251 DEB en temps réel avec AllMySat

Download on the App Store